• In Kazakhstan
  • List of Countries
  • For 7 days
  • Water Temperature
  • Satellite Maps
  • Weather Map
  • News
  • Weather Widgets
  • user-avatar
    Login

    Hourly Weather Boston

    Today, 20 November, Monday

    Time Temperature Precipitation Wind Pressure Humidity
    00:00 -1°C° 0 mm 6 mps 753 mmHg 58%
    01:00 0°C° 0 mm 5 mps 753 mmHg 60%
    02:00 -2°C° 0 mm 6 mps 754 mmHg 60%
    03:00 -2°C° 0 mm 6 mps 754 mmHg 60%
    04:00 -2°C° 0 mm 6 mps 755 mmHg 59%
    05:00 -2°C° 0 mm 6 mps 756 mmHg 56%
    06:00 -3°C° 0 mm 6 mps 757 mmHg 53%
    07:00 -2°C° 0 mm 5 mps 757 mmHg 54%
    08:00 -2°C° 0 mm 6 mps 758 mmHg 47%
    09:00 -1°C° 0 mm 7 mps 758 mmHg 41%
    10:00 0°C° 0 mm 8 mps 759 mmHg 35%
    11:00 +1°C° 0 mm 8 mps 759 mmHg 35%
    12:00 +2°C° 0 mm 7 mps 759 mmHg 36%
    13:00 +3°C° 0 mm 7 mps 759 mmHg 37%
    14:00 +3°C° 0 mm 6 mps 759 mmHg 40%
    15:00 +2°C° 0 mm 6 mps 759 mmHg 43%
    16:00 +2°C° 0 mm 5 mps 760 mmHg 45%
    17:00 +2°C° 0 mm 5 mps 760 mmHg 48%
    18:00 +1°C° 0 mm 6 mps 761 mmHg 52%
    19:00 +1°C° 0 mm 6 mps 761 mmHg 55%
    20:00 +1°C° 0 mm 5 mps 762 mmHg 59%
    21:00 +1°C° 0 mm 5 mps 762 mmHg 63%
    22:00 0°C° 0 mm 4 mps 763 mmHg 67%
    23:00 0°C° 0 mm 4 mps 763 mmHg 69%

    Tomorrow, 21 November, Tuesday

    Time Temperature Precipitation Wind Pressure Humidity
    00:00 0°C° 0 mm 4 mps 764 mmHg 70%
    01:00 0°C° 0 mm 4 mps 764 mmHg 71%
    02:00 0°C° 0 mm 4 mps 764 mmHg 71%
    03:00 0°C° 0 mm 4 mps 764 mmHg 70%
    04:00 0°C° 0 mm 4 mps 764 mmHg 69%
    05:00 +1°C° 0 mm 4 mps 764 mmHg 68%
    06:00 +1°C° 0 mm 4 mps 764 mmHg 66%
    07:00 +1°C° 0 mm 5 mps 764 mmHg 65%
    08:00 +5°C° 0 mm 5 mps 764 mmHg 58%
    09:00 +7°C° 0 mm 6 mps 764 mmHg 52%
    10:00 +9°C° 0 mm 6 mps 764 mmHg 46%
    11:00 +10°C° 0 mm 6 mps 763 mmHg 45%
    12:00 +11°C° 0 mm 7 mps 763 mmHg 44%
    13:00 +12°C° 0 mm 7 mps 762 mmHg 43%
    14:00 +11°C° 0 mm 6 mps 762 mmHg 47%
    15:00 +11°C° 0 mm 6 mps 762 mmHg 51%
    16:00 +10°C° 0 mm 6 mps 762 mmHg 55%
    17:00 +9°C° 0 mm 5 mps 762 mmHg 58%
    18:00 +8°C° 0 mm 5 mps 762 mmHg 60%
    19:00 +8°C° 0 mm 5 mps 762 mmHg 63%
    20:00 +8°C° 0 mm 5 mps 762 mmHg 63%
    21:00 +8°C° 0 mm 5 mps 762 mmHg 62%
    22:00 +8°C° 0 mm 5 mps 762 mmHg 61%
    23:00 +8°C° 0 mm 4 mps 762 mmHg 62%

    Day after tomorrow, 22 November, Wednesday

    Time Temperature Precipitation Wind Pressure Humidity
    00:00 +7°C° 0 mm 4 mps 762 mmHg 63%
    01:00 +7°C° 0 mm 4 mps 762 mmHg 64%
    02:00 +8°C° 0 mm 3 mps 761 mmHg 69%
    03:00 +8°C° 0 mm 3 mps 761 mmHg 75%
    04:00 +8°C° 0 mm 3 mps 761 mmHg 80%
    05:00 +8°C° 0.1 mm 3 mps 761 mmHg 83%
    06:00 +8°C° 0.1 mm 3 mps 760 mmHg 87%
    07:00 +8°C° 0.1 mm 3 mps 760 mmHg 91%
    08:00 +9°C° 0.6 mm 3 mps 760 mmHg 85%
    09:00 +10°C° 0.6 mm 3 mps 760 mmHg 80%
    10:00 +10°C° 0.6 mm 4 mps 760 mmHg 74%
    11:00 +11°C° 0 mm 4 mps 760 mmHg 66%
    12:00 +11°C° 0 mm 4 mps 760 mmHg 59%
    13:00 +11°C° 0 mm 4 mps 760 mmHg 52%
    14:00 +10°C° 0 mm 4 mps 760 mmHg 53%
    15:00 +8°C° 0 mm 4 mps 760 mmHg 54%
    16:00 +7°C° 0 mm 4 mps 760 mmHg 56%
    17:00 +6°C° 0 mm 4 mps 761 mmHg 58%
    18:00 +4°C° 0 mm 4 mps 762 mmHg 60%
    19:00 +3°C° 0 mm 4 mps 762 mmHg 61%
    20:00 +3°C° 0 mm 4 mps 763 mmHg 62%
    21:00 +1°C° 0 mm 4 mps 763 mmHg 63%
    22:00 0°C° 0 mm 4 mps 763 mmHg 64%
    23:00 -1°C° 0 mm 4 mps 763 mmHg 64%

    23 November, Thursday

    Time Temperature Precipitation Wind Pressure Humidity
    00:00 -1°C° 0 mm 4 mps 763 mmHg 65%
    01:00 -1°C° 0 mm 3 mps 763 mmHg 65%
    02:00 -1°C° 0 mm 3 mps 763 mmHg 65%
    03:00 -2°C° 0 mm 3 mps 763 mmHg 64%
    04:00 -2°C° 0 mm 3 mps 763 mmHg 64%
    05:00 -2°C° 0 mm 2 mps 763 mmHg 63%
    06:00 -2°C° 0 mm 2 mps 763 mmHg 62%
    07:00 -3°C° 0 mm 2 mps 763 mmHg 61%
    08:00 -1°C° 0 mm 2 mps 763 mmHg 55%
    09:00 +2°C° 0 mm 2 mps 763 mmHg 49%
    10:00 +4°C° 0 mm 1 mps 762 mmHg 43%
    11:00 +5°C° 0 mm 1 mps 762 mmHg 39%
    12:00 +6°C° 0 mm 1 mps 761 mmHg 36%
    13:00 +7°C° 0 mm 1 mps 760 mmHg 33%
    14:00 +6°C° 0 mm 1 mps 760 mmHg 35%
    15:00 +6°C° 0 mm 1 mps 759 mmHg 37%
    16:00 +5°C° 0 mm 1 mps 759 mmHg 39%
    17:00 +3°C° 0 mm 2 mps 759 mmHg 42%
    18:00 +3°C° 0 mm 2 mps 759 mmHg 44%
    19:00 +1°C° 0 mm 3 mps 759 mmHg 47%
    20:00 +1°C° 0 mm 3 mps 759 mmHg 49%
    21:00 0°C° 0 mm 3 mps 759 mmHg 50%
    22:00 0°C° 0 mm 3 mps 759 mmHg 51%
    23:00 0°C° 0 mm 3 mps 758 mmHg 53%

    24 November, Friday

    Time Temperature Precipitation Wind Pressure Humidity
    00:00 -1°C° 0 mm 3 mps 758 mmHg 55%
    01:00 -1°C° 0 mm 3 mps 758 mmHg 57%
    02:00 0°C° 0 mm 3 mps 758 mmHg 56%
    03:00 0°C° 0 mm 3 mps 758 mmHg 55%
    04:00 +1°C° 0 mm 3 mps 758 mmHg 54%
    05:00 +1°C° 0 mm 3 mps 758 mmHg 56%
    06:00 0°C° 0 mm 4 mps 758 mmHg 58%
    07:00 -1°C° 0 mm 4 mps 758 mmHg 60%
    08:00 +1°C° 0 mm 4 mps 758 mmHg 57%
    09:00 +3°C° 0 mm 4 mps 759 mmHg 55%
    10:00 +5°C° 0 mm 4 mps 759 mmHg 52%
    11:00 +6°C° 0 mm 4 mps 758 mmHg 49%
    12:00 +6°C° 0 mm 4 mps 758 mmHg 47%
    13:00 +7°C° 0 mm 4 mps 758 mmHg 44%
    14:00 +7°C° 0 mm 3 mps 758 mmHg 48%
    15:00 +5°C° 0 mm 3 mps 758 mmHg 52%
    16:00 +5°C° 0 mm 3 mps 758 mmHg 56%
    17:00 +5°C° 0 mm 2 mps 758 mmHg 60%
    18:00 +4°C° 0 mm 2 mps 759 mmHg 64%
    19:00 +3°C° 0 mm 2 mps 759 mmHg 68%
    20:00 +2°C° 0 mm 3 mps 759 mmHg 70%
    21:00 +1°C° 0 mm 3 mps 758 mmHg 71%
    22:00 +1°C° 0 mm 3 mps 758 mmHg 73%
    23:00 +1°C° 0 mm 4 mps 757 mmHg 73%

    25 November, Saturday

    Time Temperature Precipitation Wind Pressure Humidity
    00:00 +1°C° 0 mm 4 mps 757 mmHg 72%
    01:00 +2°C° 0 mm 5 mps 756 mmHg 72%
    02:00 +2°C° 0 mm 5 mps 755 mmHg 71%
    03:00 +3°C° 0 mm 5 mps 755 mmHg 70%
    04:00 +3°C° 0 mm 6 mps 754 mmHg 69%
    05:00 +4°C° 0 mm 6 mps 753 mmHg 71%
    06:00 +5°C° 0 mm 6 mps 752 mmHg 73%
    07:00 +7°C° 0 mm 6 mps 751 mmHg 75%
    08:00 +8°C° 0 mm 6 mps 751 mmHg 70%
    09:00 +9°C° 0 mm 7 mps 751 mmHg 65%
    10:00 +11°C° 0 mm 7 mps 750 mmHg 60%
    11:00 +11°C° 0 mm 7 mps 750 mmHg 60%
    12:00 +11°C° 0 mm 6 mps 749 mmHg 59%
    13:00 +13°C° 0 mm 6 mps 748 mmHg 59%
    14:00 +12°C° 0.1 mm 5 mps 748 mmHg 65%
    15:00 +11°C° 0.1 mm 4 mps 748 mmHg 70%
    16:00 +9°C° 0.1 mm 3 mps 748 mmHg 76%
    17:00 +9°C° 0.1 mm 3 mps 748 mmHg 79%
    18:00 +8°C° 0.1 mm 3 mps 748 mmHg 82%
    19:00 +7°C° 0.1 mm 3 mps 748 mmHg 84%
    20:00 +7°C° 0 mm 3 mps 748 mmHg 85%
    21:00 +5°C° 0 mm 3 mps 747 mmHg 86%
    22:00 +4°C° 0 mm 3 mps 747 mmHg 87%
    23:00 +4°C° 0 mm 3 mps 747 mmHg 87%
    Show more